Карточка аэропорта UATT

Внимание!
Информация на этой странице в стадии наполнения.
Если вы не увидели какой-то информации, или заметили неточность - пожалуйста сообщите нам!
Спасибо!
Команда RU-STAFF
Название аэропортаАктобе
Название аэропорта (англ.)Aktobe
Превышение738 ft. (224.9 m.)
Координаты50°14.748', 57°12.402'
Высота перехода10000ft
Эшелон переходаFL120, QNH<733:FL130
Коды ответчика3440-3447, 3540-3547
Зона ОрВДАктобе РПИ (UATT)
Данные METARUATT 140800Z 30007MPS 270V330 9999 SCT042 10/M01 Q1011 TEMPO 30015MPS RMK QFE738/0985
Проноз погоды (TAF)UATT 140739Z 1408/1506 33007MPS 9999 BKN011 TX12/1411Z TN06/1500Z TEMPO 1408/1412 31013MPS BECMG 1415/1416 31002MPS BECMG 1418/1419 3100 BR BKN007
NOTAMshow/hide NOTAM
AWOS   TABLE

Информация о ВПП

ВПП Длина ВПП (м.) Покрытие Курс ВПП Частота ILS
133202Бетон135111.7
313202Бетон315111.7

Диспетчерские позиции




Спутниковое изображение